Hourly Weather Roundup
Issued by NWS Central Illinois

Home | Current Version | Previous Version | Text Only | Print | Product List | Glossary On
Versions: 1 2 3 4 5 6 7 8 9 10 11 12 13 14 15 16 17 18 19 20 21 22 23 24 25 26 27 28 29 30 31 32 33 34 35 36 37 38 39 40 41 42 43 44 45 46 47 48 49 50
000
NZUS43 KILX 300410
HWRILX

AREA WEATHER ROUNDUP
NATIONAL WEATHER SERVICE, LINCOLN IL
1100 PM CDT MON JUN 29 2015


CITY           SKY/WX    TMP DP  RH WIND       PRES   REMARKS
BLOOMINGTON    PTCLDY    69  66  90 SW6       29.85R
CHAMPAIGN      CLEAR     67  64  90 SW5       29.85R
DANVILLE       FOG       62  62 100 CALM      29.82S VSB 1/2
DECATUR        CLEAR     68  64  87 SW7       29.85S
EFFINGHAM      CLEAR     68  64  87 CALM      29.88S
FLORA          PTCLDY    71  64  78 W3        29.87F
GALESBURG      MOCLDY    69  65  85 N9G24     29.86R
JACKSONVILLE   CLEAR     69  67  93 SW5       29.85S
LACON          MOCLDY    69  64  83 SW3       29.82R
LAWRENCEVILLE  PTCLDY    69  65  86 SW6       29.86S
LITCHFIELD     CLEAR     68  64  88 SW5       29.87S
$$


CITY           SKY/WX    TMP DP  RH WIND       PRES   REMARKS
LINCOLN        PTCLDY    70  66  86 CALM      29.84S
MACOMB         CLEAR     65  64  94 W3        29.87R
MATTOON        CLEAR     69  64  84 CALM      29.84F
MT CARMEL AP   MOCLDY    70  64  83 SW6       29.87R
OLNEY-NOBLE AP PTCLDY    66  64  94 CALM      29.87S
PARIS          CLEAR     67  65  93 SW8       29.85S
PEORIA         LGT RAIN  73  67  81 W5        29.83R
PONTIAC        PTCLDY    66  66  99 SE3       29.83S
RANTOUL        PTCLDY    67  66  96 CALM      29.84S
ROBINSON       PTCLDY    67  65  90 W6        29.86S
SPRINGFIELD    CLEAR     71  67  87 SW5       29.85R
TAYLORVILLE    CLEAR     64  64 100 SW5       29.85S
$$

...REGIONAL REPORTS...


CITY           SKY/WX    TMP DP  RH WIND       PRES   REMARKS
CHICAGO O`HARE PTCLDY    66  64  93 SW5       29.79F
KANKAKEE       PTCLDY    64  64  97 CALM      29.83R
MOLINE         CLOUDY    69  63  81 SE5       29.85R
MOUNT VERNON   CLOUDY    70  64  83 CALM      29.88S
PITTSFIELD     CLEAR     69  66  90 CALM      29.87S
QUINCY         CLEAR     68  65  90 W5        29.86S
ROCKFORD       MOCLDY    68  62  81 N6        29.81S
$$


CITY           SKY/WX    TMP DP  RH WIND       PRES   REMARKS
BURLINGTON     CLEAR     67  67 100 W3        29.85R
CEDAR RAPIDS   TSTM      66  59  78 NE14G31   29.85R
DES MOINES     CLOUDY    73  64  73 W3        29.88R
KIRKSVILLE     CLEAR     67  64  90 W3        29.90R
OTTUMWA        CLEAR     68  66  93 W6        29.85R
ST LOUIS       MOCLDY    76  68  76 SW3       29.88R
$$


CITY           SKY/WX    TMP DP  RH WIND       PRES   REMARKS
TERRE HAUTE    CLEAR     70  64  81 W7        29.84S
EVANSVILLE     PTCLDY    73  64  73 CALM      29.88R
INDIANAPOLIS   MOCLDY    66  62  87 SW7       29.82F
LAFAYETTE      FOG       63  62  97 W3        29.82F VSB 1/4
MADISON        MOCLDY    61  58  90 N5        29.79R
MILWAUKEE      MOCLDY    63  60  90 S8        29.78F
$$




USA.gov is the U.S. government's official web portal to all federal, state and local government web resources and services.